Change the Weather History Date:

Friday, April 26, 2013

  Actual Average Record
Temperature  
Mean Temperature 61 °F 65 °F  
Max Temperature 79 °F 77 °F 89 °F (1986)
Min Temperature 43 °F 54 °F 34 °F (1910)
Degree Days  
Heating Degree Days 4 3  
Month to date heating degree days 131 131  
Since 1 July heating degree days 2596 2643  
Cooling Degree Days 0 3  
Month to date cooling degree days 61 50  
Year to date cooling degree days 68 72  
Growing Degree Days 11 (Base 50)    
Moisture  
Dew Point 36 °F    
Average Humidity 53    
Maximum Humidity 89    
Minimum Humidity 16    
Precipitation  
Precipitation 0.00 in 0.14 in 1.98 in (2007)
Month to date precipitation 3.89 3.80  
Year to date precipitation 23.67 18.40  
Snow  
Snow 0.00 in 0.00 in - ()
Month to date snowfall 0.0 0.2  
Since 1 July snowfall 2.1 1.6  
Snow Depth 0.00 in    
Sea Level Pressure  
Sea Level Pressure 30.30 in    
Wind  
Wind Speed 4 mph (East)    
Max Wind Speed 12 mph    
Max Gust Speed 17 mph    
Visibility 10 miles    
Events      
T = Trace of Precipitation, MM = Missing Value Source: NWS Daily Summary

Daily Weather History Graph

Daily Weather History Graph

Search for Another Location

Airport or City:

Trip Planner

Search our weather history database for the weather conditions in past years. The results will help you decide how hot, cold, wet, or windy it might be!

Date:

Astronomy

Apr. 26, 2013 Rise Set
Actual Time 6:03 AM CDT 7:26 PM CDT
Civil Twilight 5:37 AM CDT 7:52 PM CDT
Nautical Twilight 5:06 AM CDT 8:24 PM CDT
Astronomical Twilight 4:33 AM CDT 8:56 PM CDT
Moon 8:44 PM CDT (4/26) 6:33 AM CDT (4/26)
Length of Visible Light 14h 15m
Length of Day
13h 22m
Full, 99% of the Moon is Illuminated
Apr 26
Full
May 2
Last Quarter
May 9
New
May 17
First Quarter
May 24
Full

Hourly Weather History & Observations

Time (CDT) Temp. Dew Point Humidity Pressure Visibility Wind Dir Wind Speed Gust Speed Precip Events Conditions
12:53 AM 45.0 °F 41.0 °F 86% 30.34 in 10.0 mi Calm Calm - N/A   Clear
1:53 AM 46.4 °F 39.2 °F 76% 30.32 in 10.0 mi Calm Calm - N/A   Clear
2:53 AM 45.0 °F 39.9 °F 82% 30.32 in 10.0 mi Calm Calm - N/A   Clear
3:53 AM 43.0 °F 37.9 °F 82% 30.32 in 10.0 mi Calm Calm - N/A   Clear
4:53 AM 51.1 °F 32.0 °F 48% 30.32 in 10.0 mi ENE 8.1 mph - N/A   Clear
5:53 AM 51.1 °F 30.9 °F 46% 30.34 in 10.0 mi ENE 5.8 mph - N/A   Clear
6:53 AM 53.1 °F 32.0 °F 45% 30.33 in 10.0 mi ENE 9.2 mph - N/A   Clear
7:53 AM 54.0 °F 34.0 °F 47% 30.35 in 10.0 mi ENE 6.9 mph - N/A   Clear
8:53 AM 59.0 °F 33.1 °F 38% 30.38 in 10.0 mi Variable 5.8 mph - N/A   Clear
9:53 AM 63.0 °F 34.0 °F 34% 30.37 in 10.0 mi ENE 8.1 mph - N/A   Clear
10:53 AM 66.9 °F 30.9 °F 26% 30.38 in 10.0 mi SSE 3.5 mph - N/A   Clear
11:53 AM 70.0 °F 30.9 °F 24% 30.37 in 10.0 mi Variable 5.8 mph - N/A   Clear
12:53 PM 73.9 °F 30.0 °F 20% 30.32 in 10.0 mi Variable 4.6 mph - N/A   Clear
1:53 PM 77.0 °F 32.0 °F 19% 30.30 in 10.0 mi Variable 4.6 mph - N/A   Clear
2:53 PM 78.1 °F 28.0 °F 16% 30.28 in 10.0 mi East 5.8 mph - N/A   Clear
3:53 PM 78.1 °F 32.0 °F 19% 30.25 in 10.0 mi SE 8.1 mph - N/A   Clear
4:53 PM 79.0 °F 32.0 °F 18% 30.27 in 10.0 mi South 8.1 mph - N/A   Scattered Clouds
5:53 PM 77.0 °F 35.1 °F 22% 30.27 in 10.0 mi NNE 4.6 mph - N/A   Overcast
6:53 PM 75.0 °F 37.0 °F 25% 30.22 in 10.0 mi East 4.6 mph - N/A   Partly Cloudy
7:53 PM 71.1 °F 42.1 °F 35% 30.24 in 10.0 mi ENE 3.5 mph - N/A   Scattered Clouds
8:53 PM 68.0 °F 43.0 °F 40% 30.24 in 10.0 mi Calm Calm - N/A   Clear
9:53 PM 61.0 °F 46.9 °F 60% 30.26 in 10.0 mi Calm Calm - N/A   Clear
10:53 PM 64.0 °F 46.0 °F 52% 30.27 in 10.0 mi Calm Calm - N/A   Overcast
11:53 PM 63.0 °F 48.0 °F 58% 30.25 in 10.0 mi Calm Calm - N/A   Mostly Cloudy